This is the latest recevied weather packets stored in our database for station/object SQ7RAF-15. If no packets are shown the sender has not sent any weather packets the latest 10 day(s).
| Time | Temp. | Humidity | Pressure | Rain* | Wind** | Luminosity | Snow |
|---|---|---|---|---|---|---|---|
| 1777803641 | 25° C | 33% | 1017.2 hPa | 0 mm | - | 627 W/m² | - |
| 1777803321 | 25° C | 34% | 1017.1 hPa | 0 mm | - | 637 W/m² | - |
| 1777803034 | 25° C | 33% | 1017.3 hPa | 0 mm | - | 624 W/m² | - |
| 1777802745 | 24.44° C | 34% | 1017.4 hPa | 0 mm | - | 600 W/m² | - |
| 1777802425 | 24.44° C | 35% | 1017.4 hPa | 0 mm | - | 595 W/m² | - |
| 1777802137 | 24.44° C | 35% | 1017.6 hPa | 0 mm | - | 629 W/m² | - |
| 1777801817 | 24.44° C | 34% | 1017.5 hPa | 0 mm | - | 666 W/m² | - |
| 1777801529 | 24.44° C | 35% | 1017.5 hPa | 0 mm | - | 664 W/m² | - |
| 1777801242 | 24.44° C | 35% | 1017.6 hPa | 0 mm | - | 638 W/m² | - |
| 1777800921 | 23.89° C | 36% | 1017.8 hPa | 0 mm | - | 636 W/m² | - |
| 1777800634 | 24.44° C | 35% | 1017.8 hPa | 0 mm | - | 635 W/m² | - |
| 1777800331 | 23.89° C | 36% | 1017.8 hPa | 0 mm | - | 616 W/m² | - |
| 1777800041 | 23.89° C | 37% | 1017.7 hPa | 0 mm | - | 630 W/m² | - |
| 1777799722 | 23.89° C | 37% | 1017.8 hPa | 0 mm | - | 661 W/m² | - |
| 1777799433 | 23.33° C | 38% | 1017.8 hPa | 0 mm | - | 671 W/m² | - |
| 1777799145 | 23.89° C | 38% | 1017.9 hPa | 0 mm | - | 681 W/m² | - |
| 1777798825 | 23.33° C | 39% | 1017.8 hPa | 0 mm | - | 664 W/m² | - |
| 1777798537 | 23.33° C | 39% | 1017.9 hPa | 0 mm | - | 665 W/m² | - |
| 1777798217 | 22.78° C | 40% | 1018 hPa | 0 mm | - | 647 W/m² | - |
| 1777797929 | 22.78° C | 40% | 1017.9 hPa | 0 mm | - | 643 W/m² | - |
| 1777797641 | 22.78° C | 40% | 1017.9 hPa | 0 mm | - | 646 W/m² | - |
| 1777797322 | 22.22° C | 40% | 1018.1 hPa | 0 mm | - | 641 W/m² | - |
| 1777797033 | 22.22° C | 41% | 1018 hPa | 0 mm | - | 580 W/m² | - |
| 1777796746 | 21.67° C | 42% | 1017.9 hPa | 0 mm | - | 551 W/m² | - |
| 1777796425 | 21.67° C | 42% | 1018 hPa | 0 mm | - | 550 W/m² | - |
* Rain latest hour (hover to see other rain measurements)
** Current wind speed in m/s (hover to see current wind gust speed)